Hourly Data Report for April 25, 2003

TORONTO CITY
ONTARIO

43°40'00.000" N
79°24'00.000" W
112.50 m
6158355
71508
XTO

Download Data

Hourly Data (April 2003)
Hourly Data Report for April 25, 2003
TIME
LST
Temp Definition
°C
Dew Point Definition
°C
Rel Hum Definition
%
Precip. Amount Definition
mm

Wind Dir Definition
10's deg

Wind Spd Definition
km/h
Visibility Definition
km
Stn Press Definition
kPa
Hmdx Definition


Wind Chill Definition


Weather Definition


00:00 7.0 -7.1 36   LegendMM LegendMM LegendMM 99.98     LegendNANA
01:00 6.8 -7.3 36   LegendMM LegendMM LegendMM 99.98     LegendNANA
02:00 6.8 -7.7 35   LegendMM LegendMM LegendMM 99.87     LegendNANA
03:00 6.2 -8.2 35   LegendMM LegendMM LegendMM 99.87     LegendNANA
04:00 5.8 -8.2 36   LegendMM LegendMM LegendMM 99.87     LegendNANA
05:00 4.8 -7.1 42   LegendMM LegendMM LegendMM 99.91     LegendNANA
06:00 5.5 -7.1 40   LegendMM LegendMM LegendMM 99.93     LegendNANA
07:00 6.2 -6.2 41   LegendMM LegendMM LegendMM 99.92     LegendNANA
08:00 9.1 -4.2 39   LegendMM LegendMM LegendMM 99.93     LegendNANA
09:00 9.2 -4.8 37   LegendMM LegendMM LegendMM 99.95     LegendNANA
10:00 8.4 -5.9 36   LegendMM LegendMM LegendMM 99.96     LegendNANA
11:00 8.4 -5.9 36   LegendMM LegendMM LegendMM 99.94     LegendNANA
12:00 8.7 -3.9 41   LegendMM LegendMM LegendMM 99.85     LegendNANA
13:00 9.3 -3.4 41   LegendMM LegendMM LegendMM 99.82     LegendNANA
14:00 8.3 -2.1 48   LegendMM LegendMM LegendMM 99.80     LegendNANA
15:00 10.3 -2.5 41   LegendMM LegendMM LegendMM 99.70     LegendNANA
16:00 8.8 -2.9 44   LegendMM LegendMM LegendMM 99.67     LegendNANA
17:00 8.5 -3.4 43   LegendMM LegendMM LegendMM 99.67     LegendNANA
18:00 8.1 -4.4 41   LegendMM LegendMM LegendMM 99.65     LegendNANA
19:00 8.6 -4.3 40   LegendMM LegendMM LegendMM 99.61     LegendNANA
20:00 8.3 -4.6 40   LegendMM LegendMM LegendMM 99.63     LegendNANA
21:00 7.5 -4.7 42   LegendMM LegendMM LegendMM 99.65     LegendNANA
22:00 7.5 -4.7 42   LegendMM LegendMM LegendMM 99.60     LegendNANA
23:00 7.9 -5.0 40   LegendMM LegendMM LegendMM 99.57     LegendNANA

Notes on Data Quality.

Legend

  • E = Estimated
  • M = Missing
  • NA = Not Available*
  • [empty] = Indicates an unobserved value
Date modified: